Location: Karlstad
(59.3780°N, 13.4976°E)
Time: 19:08:30
(UTC+01:00)

ISS - Visible Passes

Search period start: 29 November 2021 00:00
Search period end: 09 December 2021 00:00
Orbit: 417 x 423 km, 51.6° (Epoch: 29 November)

Date Brightness Start Highest point End Pass type
(mag) Time Alt. Az. Time Alt. Az. Time Alt. Az.
29 Nov -1.7 17:06:51 10° SW 17:09:30 21° S 17:11:56 11° ESE visible
29 Nov -1.4 18:43:05 10° WSW 18:44:55 19° SSW 18:44:55 19° SSW visible
30 Nov -1.5 16:20:00 10° SW 16:22:30 20° SSE 16:25:03 10° ESE visible
30 Nov -1.8 17:55:58 10° WSW 17:58:38 21° S 17:59:39 19° SSE visible
01 Dec -1.7 17:08:54 10° SW 17:11:37 22° S 17:14:21 10° SE visible
01 Dec -1.1 18:45:38 10° WSW 18:47:24 15° SSW 18:47:24 15° SSW visible
02 Dec -1.6 16:21:53 10° SW 16:24:36 22° S 16:27:19 10° SE visible
02 Dec -1.3 17:58:20 10° WSW 18:00:42 18° SSW 18:02:14 14° SSE visible
03 Dec -1.3 17:11:08 10° WSW 17:13:41 20° SSW 17:16:14 10° SE visible
04 Dec -1.4 16:24:00 10° WSW 16:26:39 21° S 16:29:19 10° SE visible
04 Dec -0.8 18:01:10 10° SW 18:02:38 12° SSW 18:04:06 10° S visible
05 Dec -0.9 17:13:37 10° WSW 17:15:39 15° SSW 17:17:40 10° SSE visible
06 Dec -0.9 16:26:16 10° WSW 16:28:37 17° SSW 16:30:58 10° SSE visible
08 Dec -0.5 16:29:03 10° SW 16:30:28 12° SSW 16:31:54 10° S visible
